Danbury, CT

12:12 PM EDT on July 27, 2017 (GMT -0400)
Danbury Municipal

Weather History for KDXR - December, 2011

Change the Weather History Date:

Tuesday, December 6, 2011

  Actual Average Record
Temperature  
Mean Temperature 56 °F -  
Max Temperature 59 °F 42 °F 68 °F (2001)
Min Temperature 53 °F 27 °F 8 °F (2002)
Degree Days  
Heating Degree Days 9    
Growing Degree Days 6 (Base 50)    
Moisture  
Dew Point 56 °F    
Average Humidity 96    
Maximum Humidity 100    
Minimum Humidity 90    
Precipitation  
Precipitation 0.40 in - - ()
Sea Level Pressure  
Sea Level Pressure 30.04 in    
Wind  
Wind Speed 6 mph (SSW)    
Max Wind Speed 9 mph    
Max Gust Speed 17 mph    
Visibility 5 miles    
Events Rain    
Averages and records for this station are not official NWS values.
T = Trace of Precipitation, MM = Missing Value Source: NWS Daily Summary

Daily Weather History Graph

Daily Weather History Graph

Search for Another Location

Airport or City:

Trip Planner

Search our weather history database for the weather conditions in past years. The results will help you decide how hot, cold, wet, or windy it might be!

Date:

Astronomy

Dec. 06, 2011 Rise Set
Actual Time 7:05 AM EST 4:24 PM EST
Civil Twilight 6:34 AM EST 4:55 PM EST
Nautical Twilight 5:59 AM EST 5:30 PM EST
Astronomical Twilight 5:26 AM EST 6:03 PM EST
Moon 1:51 PM EST (12/6) 3:19 AM EST (12/6)
Length of Visible Light 10h 21m
Length of Day
9h 19m
Waxing Gibbous, 86% of the Moon is Illuminated
Dec 6
Waxing Gibbous
Dec 10
Full
Dec 17
Last Quarter
Dec 24
New
Jan 1
First Quarter

Hourly Weather History & Observations

Time (EST) Temp. Dew Point Humidity Pressure Visibility Wind Dir Wind Speed Gust Speed Precip Events Conditions
12:53 AM 54.0 °F 52.0 °F 93% 30.18 in 10.0 mi SW 5.8 mph - N/A   Overcast
1:53 AM 55.0 °F 53.1 °F 93% 30.16 in 10.0 mi SW 6.9 mph - 0.00 in   Overcast
2:53 AM 55.9 °F 53.1 °F 90% 30.14 in 10.0 mi South 8.1 mph - N/A   Overcast
3:53 AM 55.0 °F 53.1 °F 93% 30.13 in 10.0 mi SE 8.1 mph - N/A   Overcast
4:19 AM 53.6 °F 51.8 °F 94% 30.12 in 9.0 mi South 5.8 mph - N/A   Overcast
4:53 AM 53.1 °F 52.0 °F 96% 30.11 in 9.0 mi SSE 6.9 mph - N/A   Overcast
5:53 AM 54.0 °F 53.1 °F 97% 30.10 in 6.0 mi South 4.6 mph - 0.00 in Rain Light Rain
6:10 AM 55.4 °F 53.6 °F 94% 30.10 in 10.0 mi South 6.9 mph - 0.00 in   Overcast
6:20 AM 53.6 °F 53.6 °F 100% 30.09 in 10.0 mi South 5.8 mph - 0.00 in   Overcast
6:30 AM 55.4 °F 53.6 °F 94% 30.09 in 10.0 mi South 9.2 mph - 0.00 in   Overcast
6:53 AM 55.9 °F 54.0 °F 93% 30.09 in 10.0 mi SSW 9.2 mph - 0.00 in   Overcast
7:53 AM 57.0 °F 55.0 °F 93% 30.09 in 10.0 mi SSW 8.1 mph 17.3 mph N/A   Overcast
8:09 AM 57.2 °F 55.4 °F 94% 30.09 in 1.8 mi SW 4.6 mph - 0.01 in Rain Light Rain
8:16 AM 57.2 °F 55.4 °F 94% 30.09 in 1.2 mi SW 8.1 mph - 0.02 in Rain Light Rain
8:29 AM 57.2 °F 55.4 °F 94% 30.09 in 1.0 mi SW 5.8 mph - 0.04 in Rain Light Rain
8:38 AM 57.2 °F 55.4 °F 94% 30.09 in 1.2 mi SW 5.8 mph - 0.05 in Rain Light Rain
8:53 AM 57.0 °F 55.9 °F 96% 30.09 in 2.5 mi SSW 8.1 mph - 0.05 in Rain Light Rain
9:16 AM 57.2 °F 55.4 °F 94% 30.09 in 2.0 mi SSW 6.9 mph - 0.01 in Rain Light Rain
9:27 AM 57.2 °F 55.4 °F 94% 30.09 in 5.0 mi SSW 6.9 mph - 0.01 in Rain Light Rain
9:53 AM 57.0 °F 55.9 °F 96% 30.09 in 4.0 mi SW 6.9 mph - 0.01 in   Overcast
10:53 AM 57.9 °F 57.0 °F 97% 30.06 in 4.0 mi SW 9.2 mph - N/A   Overcast
11:53 AM 59.0 °F 57.0 °F 93% 30.03 in 7.0 mi SSW 6.9 mph - N/A   Overcast
12:53 PM 59.0 °F 57.0 °F 93% 30.01 in 9.0 mi Variable 4.6 mph - N/A   Overcast
2:53 PM 59.0 °F 57.0 °F 93% 29.98 in 5.0 mi SW 5.8 mph - 0.01 in Rain Light Rain
2:59 PM 59.0 °F 57.2 °F 94% 29.98 in 1.8 mi Calm Calm - 0.01 in Rain Rain
3:53 PM 57.9 °F 57.0 °F 97% 29.98 in 1.0 mi Calm Calm - 0.10 in Rain Rain
4:31 PM 57.2 °F 57.2 °F 100% 29.97 in 2.5 mi Calm Calm - 0.07 in Rain Light Rain
4:53 PM 57.9 °F 57.0 °F 97% 29.97 in 5.0 mi South 3.5 mph - 0.08 in Rain Light Rain
5:07 PM 57.2 °F 57.2 °F 100% 29.98 in 4.0 mi SSW 3.5 mph - 0.02 in Rain Rain
5:13 PM 57.2 °F 57.2 °F 100% 29.98 in 2.5 mi Calm Calm - 0.04 in Rain Rain
5:51 PM 57.2 °F 57.2 °F 100% 29.96 in 2.0 mi Calm Calm - 0.06 in Rain Light Rain
5:53 PM 57.0 °F 57.0 °F 100% 29.96 in 2.0 mi Calm Calm - 0.06 in Rain Light Rain
6:53 PM 57.0 °F 57.0 °F 100% 29.96 in 2.5 mi Calm Calm - 0.05 in Rain Light Rain
7:21 PM 57.2 °F 57.2 °F 100% 29.96 in 7.0 mi Calm Calm - 0.00 in   Overcast
7:53 PM 57.9 °F 57.0 °F 97% 29.96 in 5.0 mi SSW 3.5 mph - 0.01 in Rain Light Rain
8:15 PM 57.2 °F 57.2 °F 100% 29.96 in 1.8 mi SSW 5.8 mph - 0.01 in Rain Light Rain
8:53 PM 57.9 °F 57.9 °F 100% 29.95 in 2.0 mi SSW 4.6 mph - 0.02 in Rain Light Rain
9:53 PM 57.9 °F 57.9 °F 100% 29.93 in 3.0 mi Calm Calm - 0.01 in   Overcast
10:53 PM 59.0 °F 57.9 °F 96% 29.93 in 10.0 mi SW 5.8 mph - N/A   Overcast
11:53 PM 59.0 °F 59.0 °F 100% 29.92 in 7.0 mi SW 6.9 mph - 0.00 in   Overcast